FW0906 Weather Reports


Display with metric or nautical units.
time (UTC)temp
F
wind
direction
speed
MPH
gust
MPH
rain 1hr
in
rain 24hr
in
rain mn
in
humidity
%
barometer
mb
20260507203010 62 209 9.0 21.0 0.00 0.00 0.00 43 1012.4
20260507201505 62 252 10.0 20.0 0.00 0.00 0.00 42 1012.7
20260507200110 61 254 8.0 23.0 0.00 0.00 0.00 42 1013.0
20260507194556 60 360 12.0 24.0 0.00 0.00 0.00 43 1013.3
20260507193052 60 250 17.0 28.0 0.00 0.00 0.00 42 1013.6
20260507191547 59 360 12.0 26.0 0.00 0.00 0.00 43 1014.0
20260507190042 60 235 11.0 27.0 0.00 0.00 0.00 43 1014.1
20260507184543 59 360 11.0 25.0 0.00 0.00 0.00 45 1014.2
20260507183034 59 360 8.0 23.0 0.00 0.00 0.00 46 1014.4
20260507181531 59 248 14.0 24.0 0.00 0.00 0.00 45 1014.6
20260507180027 60 360 7.0 21.0 0.00 0.00 0.00 42 1014.6
20260507174521 61 360 7.0 25.0 0.00 0.00 0.00 41 1014.8
20260507173028 61 360 12.0 21.0 0.00 0.00 0.00 39 1015.0
20260507171511 60 360 10.0 23.0 0.00 0.00 0.00 39 1015.1
20260507170007 60 244 4.0 16.0 0.00 0.00 0.00 39 1015.6
20260507164503 59 216 3.0 17.0 0.00 0.00 0.00 39 1015.7
20260507163058 59 178 1.0 11.0 0.00 0.00 0.00 40 1015.9
20260507161555 59 236 1.0 10.0 0.00 0.00 0.00 38 1016.1
20260507160054 58 236 2.0 9.0 0.00 0.00 0.00 40 1016.4
20260507154552 57 210 1.0 11.0 0.00 0.00 0.00 39 1016.8
20260507153040 56 244 4.0 11.0 0.00 0.00 0.00 40 1016.8
20260507151538 55 254 2.0 8.0 0.00 0.00 0.00 40 1017.0
20260507150033 54 232 2.0 6.0 0.00 0.00 0.00 41 1017.1
20260507144531 53 360 1.0 10.0 0.00 0.00 0.00 40 1017.3
20260507143030 52 256 1.0 7.0 0.00 0.00 0.00 40 1017.6
20260507141519 51 360 2.0 7.0 0.00 0.00 0.00 38 1017.8
20260507140015 49 257 3.0 6.0 0.00 0.00 0.00 37 1017.9
20260507134512 49 242 0.0 0.0 0.00 0.00 0.00 32 1017.9
20260507133005 47 254 0.0 0.0 0.00 0.00 0.00 25 1018.1
20260507131501 46 275 0.0 0.0 0.00 0.00 0.00 14 1018.2
20260507130108 45 279 0.0 0.0 0.00 0.00 0.00 100 1018.4
20260507124554 43 271 0.0 0.0 0.00 0.00 0.00 100 1018.4
20260507123051 42 282 0.0 0.0 0.00 0.00 0.00 100 1018.3
20260507121556 40 294 0.0 0.0 0.00 0.00 0.00 100 1018.0
20260507120052 39 297 0.0 0.0 0.00 0.00 0.00 100 1017.8
20260507114602 39 301 0.0 0.0 0.00 0.00 0.00 100 1017.9
20260507113031 37 304 0.0 0.0 0.00 0.00 0.00 100 1017.8
20260507111528 36 304 0.0 0.0 0.00 0.00 0.00 100 1017.8
20260507110023 36 304 0.0 0.0 0.00 0.00 0.00 100 1017.6
20260507104519 36 304 0.0 0.0 0.00 0.00 0.00 100 1017.7
20260507103013 36 304 0.0 0.0 0.00 0.00 0.00 100 1017.7
20260507101515 36 304 0.0 0.0 0.00 0.00 0.00 100 1017.7
20260507100007 37 304 0.0 0.0 0.00 0.00 0.00 100 1017.7
20260507094502 37 304 0.0 0.0 0.00 0.00 0.00 100 1017.8
20260507093056 37 304 0.0 0.0 0.00 0.00 0.00 100 1017.8
20260507091552 36 304 0.0 0.0 0.00 0.00 0.00 100 1017.8
20260507090049 37 304 0.0 0.0 0.00 0.00 0.00 100 1017.9
20260507084554 38 304 0.0 0.0 0.00 0.00 0.00 100 1017.9
20260507083039 39 304 0.0 0.0 0.00 0.00 0.00 100 1017.8
20260507081535 39 304 0.0 0.0 0.00 0.00 0.00 100 1017.6
20260507080030 39 304 0.0 0.0 0.00 0.00 0.00 100 1017.7
20260507074526 39 304 0.0 0.0 0.00 0.00 0.00 100 1017.8
20260507073021 40 304 0.0 0.0 0.00 0.00 0.00 100 1017.8
20260507071516 40 304 0.0 0.0 0.00 0.00 0.00 100 1017.8
20260507070013 40 304 0.0 0.0 0.00 0.00 0.00 100 1017.9
20260507064508 0 0.0 0.0 0.00 0.00 0.00 1018.2
20260507063004 41 304 0.0 0.0 0.00 0.00 0.00 100 1018.1
20260507061559 40 304 0.0 0.0 0.00 0.00 0.00 100 1018.1
20260507060054 41 304 0.0 0.0 0.00 0.00 0.00 100 1018.1
20260507054551 41 304 0.0 0.0 0.00 0.00 0.00 100 1018.1
20260507053046 42 304 0.0 0.0 0.00 0.00 0.00 14 1018.1
20260507051542 43 304 0.0 0.0 0.00 0.00 0.00 25 1018.2
20260507050037 43 304 0.0 0.0 0.00 0.00 0.00 42 1018.1
20260507044532 44 304 0.0 0.0 0.00 0.00 0.00 48 1018.0
20260507043028 44 304 0.0 0.0 0.00 0.00 0.00 49 1018.0
20260507041524 44 304 0.0 0.0 0.00 0.00 0.00 50 1018.0
20260507040021 45 304 0.0 0.0 0.00 0.00 0.00 50 1018.0
20260507034516 45 304 0.0 0.0 0.00 0.00 0.00 51 1018.0
20260507033011 46 304 0.0 0.0 0.00 0.00 0.00 51 1018.0
20260507031510 46 304 0.0 0.0 0.00 0.00 0.00 51 1018.1
20260507030002 47 304 0.0 0.0 0.00 0.00 0.00 51 1018.0
20260507024607 47 304 0.0 0.0 0.00 0.00 0.00 51 1017.8
20260507023054 47 304 0.0 0.0 0.00 0.00 0.00 50 1017.7
20260507021549 48 303 0.0 0.0 0.00 0.00 0.00 50 1017.5
20260507020105 48 304 0.0 4.0 0.00 0.00 0.00 49 1017.4
20260507014541 49 304 0.0 3.0 0.00 0.00 0.00 48 1017.3
20260507013048 49 315 1.0 7.0 0.00 0.00 0.00 47 1017.2
20260507011533 50 292 0.0 9.0 0.00 0.00 0.00 46 1017.1
20260507010033 51 319 5.0 14.0 0.00 0.00 0.00 44 1017.3
20260507004522 51 307 8.0 15.0 0.00 0.00 0.00 43 1017.1
20260507003019 52 338 9.0 17.0 0.00 0.00 0.00 42 1017.1
20260507001514 53 309 9.0 24.0 0.00 0.00 0.00 41 1017.1
20260507000010 54 360 9.0 21.0 0.00 0.00 0.00 41 1016.7
20260506234505 54 342 9.0 17.0 0.00 0.00 0.00 41 1016.6
20260506233001 55 296 12.0 21.0 0.00 0.00 0.00 39 1016.5
20260506231601 55 360 11.0 20.0 0.00 0.00 0.00 40 1016.4
20260506230054 55 315 12.0 23.0 0.00 0.00 0.00 40 1016.4
20260506224551 55 319 7.0 23.0 0.00 0.00 0.00 40 1016.1
20260506223046 55 360 12.0 20.0 0.00 0.00 0.00 39 1016.1
20260506221539 55 360 7.0 22.0 0.00 0.00 0.00 40 1016.0
20260506220035 56 304 13.0 23.0 0.00 0.00 0.00 38 1016.0
20260506214539 56 360 9.0 18.0 0.00 0.00 0.00 38 1015.9
20260506213026 57 317 11.0 20.0 0.00 0.00 0.00 38 1015.8
20260506211521 57 304 10.0 21.0 0.00 0.00 0.00 38 1015.8
20260506210020 57 304 11.0 22.0 0.00 0.00 0.00 38 1015.7
20260506204513 57 360 12.0 23.0 0.00 0.00 0.00 36 1015.7